Weather History for Mobile Downtown, AL

Change the Weather History Date:

Thursday, July 4, 2013

  Actual Average Record
Temperature  
Mean Temperature 78 °F -  
Max Temperature 84 °F 87 °F 95 °F (1998)
Min Temperature 73 °F 71 °F 70 °F (2014)
Cooling Degree Days 14    
Growing Degree Days 28 (Base 50)    
Moisture  
Dew Point 73 °F    
Average Humidity 84    
Maximum Humidity 94    
Minimum Humidity 69    
Precipitation  
Precipitation 0.43 in - - ()
Sea Level Pressure  
Sea Level Pressure 29.98 in    
Wind  
Wind Speed 12 mph (ESE)    
Max Wind Speed 22 mph    
Max Gust Speed 29 mph    
Visibility 10 miles    
Events      
Averages and records for this station are not official NWS values.
T = Trace of Precipitation, MM = Missing Value Source: NWS Daily Summary

Daily Weather History Graph

Daily Weather History Graph

Search for Another Location

Airport:

Trip Planner

Search our weather history database for the weather conditions in past years. The results will help you decide how hot, cold, wet, or windy it might be!

Date:

Astronomy

Jul. 04, 2013 Rise Set
Actual Time 5:54 AM CDT 7:58 PM CDT
Civil Twilight 5:27 AM CDT 8:26 PM CDT
Nautical Twilight 4:53 AM CDT 8:59 PM CDT
Astronomical Twilight 4:17 AM CDT 9:35 PM CDT
Moon 3:05 AM CDT (7/4) 5:07 PM CDT (7/4)
Length of Visible Light 14h 59m
Length of Day
14h 04m
Waning Crescent, 11% of the Moon is Illuminated
Jul 4
Waning Crescent
Jul 8
New
Jul 15
First Quarter
Jul 22
Full
Jul 29
Last Quarter

Hourly Weather History & Observations

Time (CDT) Temp. Heat Index Dew Point Humidity Pressure Visibility Wind Dir Wind Speed Gust Speed Precip Events Conditions
12:12 AM 75.2 °F - 73.4 °F 94% 30.00 in 10.0 mi East 16.1 mph - N/A   Overcast
12:23 AM 75.2 °F - 73.4 °F 94% 30.00 in 10.0 mi East 18.4 mph - N/A   Overcast
12:31 AM 75.2 °F - 73.4 °F 94% 30.00 in 10.0 mi East 18.4 mph - N/A   Overcast
12:53 AM 75.0 °F - 72.0 °F 90% 29.98 in 6.0 mi East 21.9 mph - 0.02 in   Overcast
1:53 AM 73.9 °F - 69.1 °F 85% 29.97 in 9.0 mi ENE 12.7 mph - 0.17 in   Overcast
2:53 AM 75.0 °F - 72.0 °F 90% 29.96 in 10.0 mi ENE 9.2 mph - N/A   Scattered Clouds
3:24 AM 75.2 °F - 71.6 °F 89% 29.95 in 10.0 mi ENE 3.5 mph - N/A   Scattered Clouds
3:53 AM 73.9 °F - 72.0 °F 93% 29.94 in 10.0 mi NNW 4.6 mph - N/A   Partly Cloudy
4:53 AM 75.0 °F - 71.1 °F 87% 29.95 in 10.0 mi NE 10.4 mph - 0.01 in   Mostly Cloudy
5:53 AM 73.9 °F - 72.0 °F 93% 29.95 in 10.0 mi NNW 4.6 mph - N/A   Mostly Cloudy
6:14 AM 73.4 °F - 71.6 °F 94% 29.96 in 10.0 mi NNW 6.9 mph - N/A   Mostly Cloudy
6:53 AM 73.9 °F - 72.0 °F 93% 29.96 in 10.0 mi North 6.9 mph - N/A   Overcast
7:53 AM 75.0 °F - 72.0 °F 90% 29.97 in 10.0 mi NE 5.8 mph - N/A   Overcast
8:53 AM 77.0 °F - 72.0 °F 84% 29.96 in 10.0 mi NE 4.6 mph - N/A   Mostly Cloudy
9:53 AM 80.1 °F 84.2 °F 73.0 °F 79% 29.97 in 10.0 mi ENE 4.6 mph - N/A   Mostly Cloudy
10:31 AM 80.6 °F 85.4 °F 73.4 °F 79% 29.98 in 10.0 mi East 6.9 mph - N/A   Mostly Cloudy
10:53 AM 80.1 °F 84.2 °F 73.0 °F 79% 29.99 in 10.0 mi Calm Calm - N/A   Mostly Cloudy
11:53 AM 82.0 °F 87.9 °F 73.9 °F 76% 29.98 in 10.0 mi ESE 5.8 mph - N/A   Mostly Cloudy
12:53 PM 82.9 °F 89.4 °F 73.9 °F 74% 29.98 in 10.0 mi SE 8.1 mph - N/A   Mostly Cloudy
1:53 PM 82.9 °F 89.4 °F 73.9 °F 74% 29.97 in 10.0 mi SE 9.2 mph - N/A   Mostly Cloudy
2:53 PM 84.9 °F 92.1 °F 73.9 °F 69% 29.96 in 10.0 mi SSE 9.2 mph - N/A   Mostly Cloudy
3:00 PM 84.2 °F 90.9 °F 73.4 °F 70% 29.95 in 10.0 mi SSE 10.4 mph - N/A   Mostly Cloudy
3:53 PM 84.0 °F 91.9 °F 75.0 °F 74% 29.95 in 10.0 mi SSE 18.4 mph 23.0 mph N/A   Mostly Cloudy
4:53 PM 82.9 °F 89.4 °F 73.9 °F 74% 29.96 in 10.0 mi SE 20.7 mph 27.6 mph N/A   Scattered Clouds
5:53 PM 81.0 °F 85.8 °F 73.0 °F 77% 29.97 in 10.0 mi SE 21.9 mph 27.6 mph N/A   Mostly Cloudy
6:53 PM 80.1 °F 84.2 °F 73.0 °F 79% 29.98 in 10.0 mi SE 20.7 mph 28.8 mph N/A   Mostly Cloudy
7:23 PM 78.8 °F - 73.4 °F 83% 30.00 in 10.0 mi SE 18.4 mph - N/A   Overcast
7:53 PM 79.0 °F - 73.0 °F 82% 29.99 in 10.0 mi ESE 17.3 mph 23.0 mph N/A   Overcast
8:42 PM 78.8 °F - 73.4 °F 83% 29.99 in 10.0 mi SE 16.1 mph 21.9 mph N/A   Mostly Cloudy
8:53 PM 79.0 °F - 75.0 °F 88% 29.99 in 10.0 mi SSE 11.5 mph 24.2 mph N/A   Mostly Cloudy
9:13 PM 80.6 °F 85.4 °F 73.4 °F 79% 30.00 in 10.0 mi SSE 16.1 mph 25.3 mph N/A   Mostly Cloudy
9:53 PM 80.1 °F 84.2 °F 73.0 °F 79% 30.02 in 10.0 mi SSE 15.0 mph 24.2 mph N/A   Mostly Cloudy
10:44 PM 80.6 °F 85.4 °F 73.4 °F 79% 30.02 in 10.0 mi SSE 12.7 mph 20.7 mph N/A   Mostly Cloudy
10:53 PM 80.1 °F 84.2 °F 73.0 °F 79% 30.02 in 10.0 mi SSE 10.4 mph 19.6 mph N/A   Partly Cloudy
11:12 PM 75.2 °F - 73.4 °F 94% 30.03 in 1.8 mi South 10.4 mph 20.7 mph 0.18 in   Mostly Cloudy
11:21 PM 78.8 °F - 73.4 °F 83% 30.02 in 3.0 mi South 11.5 mph 17.3 mph 0.23 in   Overcast
11:46 PM 78.8 °F - 75.2 °F 89% 30.02 in 10.0 mi South 5.8 mph - 0.23 in   Mostly Cloudy
11:53 PM 78.1 °F - 73.9 °F 87% 30.02 in 10.0 mi SSW 5.8 mph - 0.23 in   Scattered Clouds